This is the latest recevied weather packets stored in our database for station/object N1ORT. If no packets are shown the sender has not sent any weather packets the latest 10 day(s).
| Time | Temp. | Humidity | Pressure | Rain* | Wind** | Luminosity | Snow |
|---|---|---|---|---|---|---|---|
| 1787867303 | 26.11° C | 68% | 1014 hPa | 0 mm | - | 113 W/m² | - |
| 1787867006 | 26.11° C | 65% | 1014.2 hPa | 0 mm | - | 95 W/m² | - |
| 1787866694 | 26.11° C | 65% | 1014.3 hPa | 0 mm | - | 72 W/m² | - |
| 1787866393 | 26.11° C | 64% | 1014.1 hPa | 0 mm | - | 85 W/m² | - |
| 1787866087 | 26.67° C | 65% | 1014.1 hPa | 0 mm | - | 84 W/m² | - |
| 1787865782 | 26.67° C | 65% | 1014.2 hPa | 0 mm | - | 107 W/m² | - |
| 1787865477 | 26.67° C | 65% | 1014.1 hPa | 0 mm | - | 115 W/m² | - |
| 1787865172 | 26.67° C | 65% | 1014.2 hPa | 0 mm | - | 139 W/m² | - |
| 1787864868 | 26.67° C | 64% | 1014.3 hPa | 0 mm | - | 119 W/m² | - |
| 1787864563 | 26.67° C | 70% | 1014.2 hPa | 0 mm | - | 117 W/m² | - |
| 1787864258 | 26.67° C | 69% | 1014 hPa | 0 mm | - | 115 W/m² | - |
| 1787863952 | 27.78° C | 65% | 1014.3 hPa | 0 mm | - | 134 W/m² | - |
| 1787863651 | 27.78° C | 66% | 1014.3 hPa | 0 mm | - | 135 W/m² | - |
| 1787863349 | 27.78° C | 65% | 1014.3 hPa | 0 mm | - | 167 W/m² | - |
| 1787863046 | 27.78° C | 63% | 1014.1 hPa | 0 mm | - | 165 W/m² | - |
| 1787862748 | 27.78° C | 64% | 1014.5 hPa | 0 mm | - | 156 W/m² | - |
| 1787862441 | 27.22° C | 64% | 1014.5 hPa | 0 mm | - | 213 W/m² | - |
| 1787862135 | 27.78° C | 64% | 1014.3 hPa | 0 mm | - | 177 W/m² | - |
| 1787861831 | 27.78° C | 62% | 1014.5 hPa | 0 mm | - | 228 W/m² | - |
| 1787861529 | 27.22° C | 63% | 1014.3 hPa | 0 mm | - | 191 W/m² | - |
| 1787861224 | 28.33° C | 59% | 1014.2 hPa | 0 mm | - | 140 W/m² | - |
| 1787860923 | 28.89° C | 63% | 1014.7 hPa | 0 mm | - | 403 W/m² | - |
| 1787860618 | 28.33° C | 61% | 1014.5 hPa | 0 mm | - | 408 W/m² | - |
| 1787860312 | 27.78° C | 63% | 1014.3 hPa | 0 mm | - | 544 W/m² | - |
| 1787860007 | 27.78° C | 67% | 1014.5 hPa | 0 mm | - | 349 W/m² | - |
* Rain latest hour (hover to see other rain measurements)
** Current wind speed in m/s (hover to see current wind gust speed)